Regional Weather Roundup
Issued by NWS

Home | Current Version | Previous Version | Text Only | Print | Product List | Glossary On
Versions: 1 2 3 4 5 6 7 8 9 10 11 12 13 14 15 16 17 18 19 20 21 22 23 24 25 26 27 28
000
ASUS45 KSLC 010510
RWRUT

UTAH REGIONAL WEATHER ROUNDUP
NATIONAL WEATHER SERVICE SALT LAKE CITY UT
1100 PM MDT FRI SEP 30 2016

UTZ001>011-023>025-010600-

NORTHERN UTAH

CITY           SKY/WX    TMP DP  RH WIND       PRES   REMARKS
BRIGHAM CITY     N/A     59  51  75 CALM      30.08S
HILL AFB       CLEAR     63  45  51 E14       30.10S
LOGAN          CLEAR     57  51  80 CALM      30.09S
OGDEN          CLEAR     63  46  54 S9        30.07S
PROVO AIRPORT  CLEAR     63  47  55 SE8       30.11S
SALT LAKE CITY CLEAR     67  46  47 SE10      30.07R
VERNAL         CLOUDY    56  49  77 N3        30.20S
WENDOVER       CLEAR     64  48  55 NE8       30.03F
HEBER CITY     CLEAR     48  43  81 CALM      30.18S
WEST JORDAN    CLEAR     62  46  55 S6        30.10S

$$

UTZ012>022-026-027-010600-

SOUTHERN/CENTRAL UTAH

CITY           SKY/WX    TMP DP  RH WIND       PRES   REMARKS
BLANDING       CLEAR     52  48  86 N8        30.31S
BRYCE CANYON   CLEAR     45  42  89 W6        30.33F
CEDAR CITY     CLEAR     57  44  62 SW6       30.18S
DELTA          CLEAR     61  41  48 S9        30.11S
MILFORD        CLEAR     63  44  50 SW13      30.13S
MOAB/CYNLANDS  CLEAR     61  54  77 S3        30.14S
PRICE          CLEAR     54  48  80 NE6       30.23S
ST GEORGE      CLEAR     73  50  43 NE5       30.06R

$$

REGIONAL REPORTS     COLORADO/ARIZONA

CITY           SKY/WX    TMP DP  RH WIND       PRES   REMARKS
CRAIG, CO      CLEAR     46  43  89 SE5       30.26S
GRAND JUNCTION MOCLDY    59  51  75 E7        30.18S
RIFLE          CLEAR     52  47  83 SE6       30.24R
MONTROSE       CLEAR     53  45  74 SE8       30.26S
CORTEZ         CLEAR     50  44  80 E7        30.24S
PAGE, AZ       CLEAR     66  53  63 S3        30.14R
GRAND CANYON   CLEAR     48  45  89 CALM      30.30R
KINGMAN        CLEAR     67  32  27 SE6       30.08R
FLAGSTAFF      CLEAR     46  45  96 CALM      30.32R

$$

REGIONAL REPORTS    NEVADA/IDAHO/WYOMING

CITY           SKY/WX    TMP DP  RH WIND       PRES   REMARKS
LAS VEGAS, NV  PTCLDY    83  40  21 S5        29.95R
ELY            CLEAR     57  36  45 S9        30.16S
ELKO           MOCLDY    61  47  59 E6        30.03S
POCATELLO, ID  CLEAR     65  45  48 E7G26     30.05F
BURLEY         CLOUDY    65  46  50 W6        30.00S
EVANSTON, WY   CLOUDY    52  40  63 SE7       30.26S
ROCK SPRINGS   CLOUDY    57  42  57 SW3       30.24S

$$




USA.gov is the U.S. government's official web portal to all federal, state and local government web resources and services.